[[{"header":{"parameterUnit":"m.s-1","parameterCategory":1,"la1":30.2991,"la2":30.254,"lo1":-89.0895,"lo2":-89.0444,"dy":0.0017,"dx":0.0017,"nx":28,"ny":28,"refTime":"2025-08-16T21:00:00:Z","depth":0,"parameterNumber":2,"parameterNumberName":"U-component_of_WINDS"},"data":[0,0,0,0,0,0,0,0,0,0,0,0,0,0,0,0,0,0,0,0,0,0,0,0,0,0,0,0,0,0,0,0,0,0,0,0,0,0,0,0,0,0,0,0,0,0,0,0,0,0,0,0,0,0,0,0,0,0,1.0663,1.0664,0,1.0725,1.0725,1.0726,1.074,1.074,1.0739,1.0739,1.0802,1.0804,1.0806,0,0,0,0,0,0,0,0,0,0,0,0,0,1.0558,1.056,1.0663,1.0664,1.0665,1.0725,1.0725,1.0726,1.074,1.074,1.0739,1.0739,1.0802,1.0804,1.0807,0,0,0,0,0,0,0,0,0,0,0,0,0,1.061,1.056,1.0663,1.0679,1.0681,1.0724,1.0725,1.0726,1.074,1.074,1.0739,1.0738,1.0801,1.0804,1.0807,1.0839,0,0,1.0816,1.0818,0,0,0,0,0,0,0,0,1.0607,1.0614,1.0676,1.0678,1.068,1.0724,1.0712,1.0764,1.074,1.0718,1.0739,1.0738,1.0777,1.0782,1.0795,1.0842,1.0845,1.0817,1.0819,1.082,1.0821,0,0,0,0,0,0,0,1.0603,1.0611,1.0688,1.0677,1.0679,1.0683,1.069,1.0722,1.075,1.072,1.0721,1.0728,1.0778,1.0792,1.0796,1.0846,1.0817,1.0819,1.0821,1.0823,1.0922,1.0922,0,0,0,0,0,0,1.0597,1.0608,1.0686,1.0689,1.0641,1.0685,1.0693,1.0711,1.075,1.0755,1.0728,1.0728,1.0787,1.0793,1.0799,1.0838,1.082,1.0823,1.0825,1.0921,1.0922,1.0923,0,0,0,0,0,0,1.0594,1.0604,1.0683,1.0649,1.0659,1.0688,1.0708,1.0712,1.0726,1.0756,1.0762,1.0737,1.0786,1.0794,1.0829,1.0841,1.0824,1.0827,1.092,1.0921,1.0922,1.0918,0,0,0,0,0,0,1.0591,1.0603,1.0615,1.0649,1.0661,1.0712,1.0709,1.0714,1.0731,1.0732,1.0766,1.0771,1.0787,1.0824,1.0832,1.0845,1.083,1.0919,1.092,1.0922,1.0917,1.0919,1.092,0,0,0,0,0,1.0588,1.0612,1.0616,1.0625,1.0678,1.0713,1.072,1.0737,1.0732,1.0745,1.0764,1.077,1.0838,1.0827,1.0836,1.085,1.0918,1.092,1.0922,1.0917,1.0919,1.092,0,0,0,0,0,0,1.058,1.0617,1.0622,1.0658,1.0682,1.0715,1.0732,1.0738,1.0765,1.0764,1.0784,1.0792,1.0825,1.0841,1.0828,1.0883,1.0878,1.0882,1.0871,1.0873,1.0875,1.087,1.0832,0,0,0,0,0,1.0582,1.0607,1.0639,1.0668,1.068,1.0704,1.072,1.073,1.0756,1.0767,1.0789,1.0814,1.0841,1.0858,1.0885,1.092,1.0927,1.0934,1.0935,1.0937,1.0939,1.0958,1.0961,1.0928,1.0928,1.0928,0,0,1.0588,1.0611,1.0626,1.0667,1.0687,1.0712,1.0712,1.074,1.0759,1.0771,1.0805,1.0821,1.0851,1.0885,1.0902,1.09,1.095,1.0939,1.0939,1.0942,1.096,1.0963,1.0966,1.0929,1.0929,1.0929,0,0,1.061,1.0631,1.0657,1.0677,1.0706,1.0722,1.0728,1.076,1.0772,1.0806,1.0815,1.0838,1.0884,1.0904,1.0921,1.095,1.0956,1.0958,1.0966,1.0984,1.0987,1.0989,1.0999,1.1002,1.0961,1.0961,1.0961,0,1.0614,1.0652,1.0669,1.0696,1.0713,1.0725,1.0751,1.0769,1.0807,1.0818,1.0816,1.0873,1.0894,1.0933,1.094,1.0953,1.096,1.0954,1.0985,1.0988,1.099,1.1,1.1003,1.0961,1.0961,1.0961,1.0961,0,1.0654,1.0681,1.0698,1.0733,1.0752,1.0779,1.0799,1.0817,1.0826,1.0841,1.0875,1.09,1.0932,1.0942,1.0951,1.0982,1.098,1.0981,1.0976,1.0993,1.1002,1.1006,1.0961,1.0961,1.0961,1.0961,0,0,1.0675,1.0718,1.0724,1.0739,1.0772,1.0793,1.082,1.085,1.0864,1.0889,1.0912,1.095,1.0951,1.0969,1.0981,1.0997,1.1017,1.0996,1.0997,1.0998,1.1052,1.1051,1.1055,1.1021,1.1022,1.1023,1.1049,0,1.0702,1.0749,1.0764,1.0803,1.0828,1.0838,1.0861,1.0884,1.0899,1.0922,1.0939,1.0966,1.0965,1.0976,1.0992,1.1011,1.1028,1.1009,1.1042,1.1043,1.1034,1.106,1.1059,1.1083,1.1053,1.1054,1.1054,0,1.0739,1.0764,1.0805,1.0834,1.0845,1.0865,1.0893,1.0915,1.0941,1.0951,1.097,1.0981,1.1008,1.1002,1.104,1.1027,1.1041,1.1052,1.1054,1.1057,1.1049,1.1063,1.1091,1.1094,1.106,1.106,1.1059,0,1.0749,1.0793,1.0823,1.0836,1.087,1.0884,1.0899,1.0924,1.0941,1.0966,1.0977,1.1004,1.102,1.1041,1.1058,1.1052,1.1094,1.109,1.1103,1.1103,1.1112,1.1111,1.1141,1.1121,1.1121,1.1121,1.1121,0,1.0777,1.0802,1.0827,1.0846,1.0874,1.0891,1.0918,1.0934,1.0956,1.0977,1.0989,1.1009,1.103,1.1053,1.1067,1.1096,1.1103,1.1111,1.1115,1.111,1.1109,1.112,1.1118,1.1122,1.1122,1.1122,1.1122,0,1.0794,1.0812,1.0845,1.0874,1.0882,1.0901,1.0927,1.0945,1.096,1.0987,1.0994,1.1018,1.1046,1.1065,1.11,1.1109,1.1141,1.1144,1.1132,1.1133,1.1146,1.1144,1.1184,1.119,1.1166,1.1166,1.1166,0,1.081,1.0829,1.086,1.0875,1.089,1.0914,1.0931,1.0948,1.0965,1.0995,1.1009,1.1037,1.1061,1.1104,1.1124,1.1151,1.1155,1.1167,1.1159,1.1154,1.1155,1.1153,1.1155,1.1168,1.1168,1.1169,1.1169,0,1.0838,1.0845,1.0869,1.0895,1.0914,1.0936,1.0957,1.0969,1.099,1.1009,1.1036,1.1054,1.1089,1.1117,1.1146,1.1161,1.1169,1.1171,1.1175,1.1171,1.1163,1.1167,1.1135,1.117,1.117,1.117,1.117,1.117,1.0855,1.0872,1.0896,1.0921,1.0939,1.0958,1.0976,1.0993,1.1016,1.1046,1.1055,1.1083,1.1108,1.1147,1.1163,1.1185,1.1185,1.1191,1.1193,1.1194,1.1194,1.1159,1.1191,1.1191,1.1191,1.1191,1.1191,0,1.0883,1.0898,1.0921,1.095,1.097,1.0974,1.0998,1.1014,1.1039,1.106,1.1083,1.1114,1.114,1.1162,1.119,1.1203,1.1207,1.121,1.1209,1.1212,1.1193,1.1186,1.1206,1.1206,1.1206,1.1206,1.1206,1.1206,1.0899,1.0928,1.0938,1.0975,1.099,1.1018,1.1031,1.1049,1.1066,1.11,1.1122,1.1136,1.1158,1.1186,1.121,1.1216,1.1226,1.1227,1.1234,1.1216,1.1214,1.1212,1.1206,1.1229,1.1229,1.1251,1.1252,1.1252]},{"header":{"parameterUnit":"m.s-1","parameterCategory":1,"la1":30.2991,"la2":30.254,"lo1":-89.0895,"lo2":-89.0444,"dy":0.0017,"dx":0.0017,"nx":28,"ny":28,"refTime":"2025-08-16T21:00:00:Z","depth":0,"parameterNumber":3,"parameterNumberName":"V-component_of_WINDS"},"data":[0,0,0,0,0,0,0,0,0,0,0,0,0,0,0,0,0,0,0,0,0,0,0,0,0,0,0,0,0,0,0,0,0,0,0,0,0,0,0,0,0,0,0,0,0,0,0,0,0,0,0,0,0,0,0,0,0,0,-1.3366,-1.3367,0,-1.3516,-1.3518,-1.352,-1.356,-1.3559,-1.3558,-1.3557,-1.3713,-1.3718,-1.3723,0,0,0,0,0,0,0,0,0,0,0,0,0,-1.3116,-1.312,-1.3365,-1.3367,-1.3369,-1.3516,-1.3518,-1.352,-1.356,-1.3559,-1.3558,-1.3557,-1.3712,-1.3718,-1.3724,0,0,0,0,0,0,0,0,0,0,0,0,0,-1.3241,-1.3121,-1.3365,-1.3407,-1.3412,-1.3516,-1.3518,-1.3521,-1.356,-1.3559,-1.3558,-1.3556,-1.371,-1.3717,-1.3725,-1.3798,0,0,-1.3747,-1.3751,0,0,0,0,0,0,0,0,-1.3234,-1.325,-1.3399,-1.3404,-1.341,-1.3518,-1.3487,-1.3614,-1.3561,-1.3504,-1.3557,-1.3556,-1.365,-1.3662,-1.3693,-1.3805,-1.3812,-1.3748,-1.3753,-1.3756,-1.3758,0,0,0,0,0,0,0,-1.3225,-1.3244,-1.3425,-1.3401,-1.3408,-1.3419,-1.3435,-1.3511,-1.3583,-1.3509,-1.3512,-1.3529,-1.3652,-1.3686,-1.3697,-1.3814,-1.3748,-1.3754,-1.3759,-1.3762,-1.3996,-1.3998,0,0,0,0,0,0,-1.3209,-1.3236,-1.342,-1.343,-1.3317,-1.3425,-1.3443,-1.3485,-1.3582,-1.3595,-1.353,-1.3531,-1.3674,-1.3688,-1.3703,-1.3797,-1.3756,-1.3763,-1.3767,-1.3994,-1.3997,-1.3998,0,0,0,0,0,0,-1.3203,-1.3225,-1.3414,-1.3334,-1.3359,-1.343,-1.3477,-1.3488,-1.3522,-1.3598,-1.3611,-1.3551,-1.3673,-1.3692,-1.3774,-1.3803,-1.3766,-1.3773,-1.3992,-1.3995,-1.3997,-1.3984,0,0,0,0,0,0,-1.3196,-1.3223,-1.325,-1.3334,-1.3363,-1.3482,-1.3479,-1.3492,-1.3535,-1.3536,-1.3621,-1.3634,-1.3674,-1.3763,-1.3782,-1.3812,-1.3779,-1.399,-1.3994,-1.3997,-1.3982,-1.3985,-1.3988,0,0,0,0,0,-1.3187,-1.324,-1.3251,-1.3273,-1.3399,-1.3484,-1.35,-1.3544,-1.3536,-1.3566,-1.3615,-1.3631,-1.3796,-1.3771,-1.3792,-1.3826,-1.3989,-1.3993,-1.3996,-1.398,-1.3985,-1.3988,0,0,0,0,0,0,-1.3158,-1.3252,-1.3265,-1.3347,-1.3407,-1.349,-1.3528,-1.3547,-1.3611,-1.361,-1.3663,-1.3682,-1.376,-1.3801,-1.3771,-1.3903,-1.3893,-1.3901,-1.3873,-1.3878,-1.3881,-1.387,-1.3785,0,0,0,0,0,-1.3161,-1.3221,-1.33,-1.3365,-1.3394,-1.3456,-1.3494,-1.3523,-1.3588,-1.3613,-1.3669,-1.3731,-1.3798,-1.384,-1.3905,-1.3988,-1.4008,-1.4022,-1.4025,-1.4027,-1.4034,-1.4083,-1.4091,-1.4011,-1.4011,-1.4011,0,0,-1.3168,-1.3227,-1.3261,-1.3361,-1.341,-1.3473,-1.3477,-1.3542,-1.3589,-1.3624,-1.3705,-1.3747,-1.3821,-1.3904,-1.3944,-1.3941,-1.4061,-1.4032,-1.4033,-1.4039,-1.4088,-1.4096,-1.4102,-1.4014,-1.4013,-1.4013,0,0,-1.3213,-1.3263,-1.3323,-1.3373,-1.3448,-1.3489,-1.3504,-1.3585,-1.3615,-1.3697,-1.3724,-1.3782,-1.3894,-1.3946,-1.3987,-1.4053,-1.4071,-1.4073,-1.409,-1.4138,-1.4144,-1.415,-1.4175,-1.4184,-1.4079,-1.4079,-1.4079,0,-1.3212,-1.3306,-1.3352,-1.3416,-1.346,-1.3494,-1.3556,-1.3603,-1.3695,-1.3725,-1.3721,-1.3864,-1.3915,-1.4012,-1.4029,-1.406,-1.408,-1.4064,-1.4139,-1.4146,-1.4152,-1.4177,-1.4186,-1.4079,-1.4079,-1.4079,-1.4079,0,-1.3303,-1.3368,-1.3408,-1.3497,-1.3545,-1.3608,-1.3664,-1.3707,-1.3733,-1.3775,-1.3859,-1.3922,-1.4002,-1.4027,-1.4052,-1.4128,-1.4124,-1.4129,-1.412,-1.4158,-1.4183,-1.4193,-1.4079,-1.4079,-1.4079,-1.4079,0,0,-1.3333,-1.3447,-1.3461,-1.3503,-1.3589,-1.3641,-1.3706,-1.3784,-1.3821,-1.3884,-1.3942,-1.4037,-1.4042,-1.4089,-1.412,-1.4162,-1.4213,-1.4162,-1.4164,-1.417,-1.4303,-1.43,-1.431,-1.4225,-1.4227,-1.4229,-1.4298,0,-1.339,-1.3507,-1.3551,-1.3648,-1.3709,-1.3743,-1.3801,-1.3861,-1.3902,-1.3961,-1.4007,-1.4075,-1.4075,-1.4104,-1.4147,-1.4197,-1.424,-1.4193,-1.428,-1.4283,-1.4262,-1.4323,-1.4319,-1.4381,-1.4307,-1.4309,-1.431,0,-1.3471,-1.3536,-1.3639,-1.3719,-1.3747,-1.3798,-1.3873,-1.3929,-1.3998,-1.4026,-1.4079,-1.4108,-1.4179,-1.4166,-1.4266,-1.4233,-1.4271,-1.4302,-1.4306,-1.4316,-1.4299,-1.4336,-1.4402,-1.4411,-1.4325,-1.4324,-1.4323,0,-1.3485,-1.3598,-1.3674,-1.3709,-1.3804,-1.3839,-1.3881,-1.3949,-1.3994,-1.406,-1.409,-1.4163,-1.4204,-1.4261,-1.431,-1.4295,-1.4407,-1.4397,-1.4433,-1.4432,-1.4456,-1.4454,-1.453,-1.4478,-1.4478,-1.4478,-1.4478,0,-1.3545,-1.3607,-1.3682,-1.3729,-1.38,-1.3851,-1.392,-1.3964,-1.4025,-1.4082,-1.4116,-1.4169,-1.423,-1.4292,-1.4331,-1.4409,-1.4427,-1.4453,-1.4462,-1.445,-1.4447,-1.4477,-1.4474,-1.4481,-1.448,-1.448,-1.4479,0,-1.3572,-1.3625,-1.3711,-1.3794,-1.3817,-1.3866,-1.3938,-1.3986,-1.4029,-1.4102,-1.4122,-1.419,-1.4265,-1.4319,-1.4416,-1.4442,-1.4527,-1.4536,-1.4503,-1.4508,-1.4542,-1.4539,-1.4641,-1.4658,-1.4594,-1.4594,-1.4595,0,-1.3607,-1.3655,-1.3745,-1.3785,-1.3827,-1.3892,-1.3938,-1.3989,-1.4036,-1.412,-1.4158,-1.4235,-1.43,-1.4418,-1.4477,-1.4552,-1.4564,-1.4594,-1.4575,-1.4562,-1.4566,-1.4563,-1.4569,-1.4597,-1.4598,-1.4598,-1.4598,0,-1.3664,-1.3688,-1.3752,-1.3826,-1.388,-1.394,-1.4002,-1.4034,-1.4097,-1.4148,-1.4224,-1.4274,-1.4373,-1.445,-1.4531,-1.4575,-1.4598,-1.4604,-1.4617,-1.4605,-1.4585,-1.4598,-1.4512,-1.4601,-1.4601,-1.4601,-1.4601,-1.4601,-1.3697,-1.3743,-1.3813,-1.3884,-1.3936,-1.3993,-1.4043,-1.4092,-1.4157,-1.4241,-1.4268,-1.4348,-1.4419,-1.453,-1.4575,-1.464,-1.4639,-1.4657,-1.4662,-1.4666,-1.4666,-1.4574,-1.4654,-1.4654,-1.4654,-1.4654,-1.4654,0,-1.3757,-1.3804,-1.3869,-1.3954,-1.4011,-1.4026,-1.4096,-1.4142,-1.4212,-1.4276,-1.4339,-1.4428,-1.4503,-1.4568,-1.4647,-1.4686,-1.4699,-1.4705,-1.4703,-1.4714,-1.4661,-1.4643,-1.4694,-1.4694,-1.4694,-1.4694,-1.4694,-1.4694,-1.3795,-1.3874,-1.3906,-1.4012,-1.4059,-1.4137,-1.4176,-1.4229,-1.428,-1.4378,-1.4441,-1.4483,-1.4548,-1.4632,-1.4702,-1.472,-1.4748,-1.4752,-1.4772,-1.4722,-1.4717,-1.4713,-1.4696,-1.4757,-1.4757,-1.4819,-1.482,-1.482]}]]